Time,TemperatureF,DewpointF,PressureIn,WindDirection,WindDirectionDegrees,WindSpeedMPH,WindSpeedGustMPH,Humidity,HourlyPrecipIn,Conditions,Clouds,dailyrainin,SoftwareType,DateUTC
2013-05-03 00:01:00,52.7,49.8,29.75,North,0,2.0,5.0,90,0.00,,,0.01,meteohub,2013-05-03 04:01:00,
2013-05-03 00:02:00,52.7,49.8,29.76,North,0,2.0,5.0,90,0.00,,,0.01,meteohub,2013-05-03 04:02:00,
2013-05-03 00:03:00,52.7,49.8,29.76,North,0,3.0,5.0,90,0.00,,,0.01,meteohub,2013-05-03 04:03:00,
2013-05-03 00:06:00,52.7,50.2,29.75,NE,45,5.0,5.0,91,0.00,,,0.00,meteohub,2013-05-03 04:06:00,
2013-05-03 00:12:00,52.5,50.0,29.75,NW,315,3.0,5.0,91,0.00,,,0.00,meteohub,2013-05-03 04:12:00,
2013-05-03 00:13:00,52.3,50.0,29.75,West,270,2.0,5.0,92,0.00,,,0.00,meteohub,2013-05-03 04:13:00,
2013-05-03 00:20:00,52.3,50.0,29.75,NW,315,4.0,8.0,92,0.00,,,0.00,meteohub,2013-05-03 04:20:00,
2013-05-03 00:26:00,52.2,50.2,29.75,South,180,3.0,8.0,93,0.00,,,0.00,meteohub,2013-05-03 04:26:00,
2013-05-03 00:32:00,52.2,50.5,29.75,North,0,2.0,8.0,94,0.00,,,0.00,meteohub,2013-05-03 04:32:00,
2013-05-03 00:37:00,52.2,50.7,29.74,East,90,4.0,4.0,95,0.00,,,0.00,meteohub,2013-05-03 04:37:00,
2013-05-03 00:43:00,52.2,50.7,29.74,East,90,2.0,4.0,95,0.00,,,0.00,meteohub,2013-05-03 04:43:00,
2013-05-03 00:49:00,52.2,50.7,29.73,NW,315,4.0,5.0,95,0.00,,,0.00,meteohub,2013-05-03 04:49:00,
2013-05-03 00:55:00,52.2,51.1,29.73,NW,315,4.0,5.0,96,0.00,,,0.00,meteohub,2013-05-03 04:55:00,
2013-05-03 01:02:00,52.2,51.1,29.73,North,0,7.0,7.0,96,0.00,,,0.00,meteohub,2013-05-03 05:02:00,
2013-05-03 01:08:00,52.2,51.1,29.73,NE,45,2.0,7.0,96,0.00,,,0.00,meteohub,2013-05-03 05:08:00,
2013-05-03 01:14:00,52.2,51.3,29.73,NE,45,2.0,7.0,97,0.00,,,0.00,meteohub,2013-05-03 05:14:00,
2013-05-03 01:20:00,52.2,51.1,29.73,NE,45,2.0,4.0,96,0.00,,,0.00,meteohub,2013-05-03 05:20:00,
2013-05-03 01:26:00,52.2,51.3,29.72,NE,45,2.0,4.0,97,0.01,,,0.01,meteohub,2013-05-03 05:26:00,
2013-05-03 01:32:00,52.0,51.1,29.72,North,0,2.0,4.0,97,0.01,,,0.01,meteohub,2013-05-03 05:32:00,
2013-05-03 01:37:00,52.0,51.1,29.72,North,0,2.0,4.0,97,0.01,,,0.01,meteohub,2013-05-03 05:37:00,
2013-05-03 01:43:00,52.0,51.4,29.71,NE,45,2.0,4.0,98,0.01,,,0.01,meteohub,2013-05-03 05:43:00,
2013-05-03 01:50:00,52.0,51.4,29.72,NW,315,2.0,4.0,98,0.01,,,0.01,meteohub,2013-05-03 05:50:00,
2013-05-03 01:56:00,51.8,51.3,29.71,East,90,2.0,3.0,98,0.01,,,0.01,meteohub,2013-05-03 05:56:00,
2013-05-03 02:02:00,51.8,51.3,29.71,NW,315,2.0,2.0,98,0.01,,,0.01,meteohub,2013-05-03 06:02:00,
2013-05-03 02:07:00,51.8,51.3,29.71,NNE,23,4.0,4.0,98,0.01,,,0.01,meteohub,2013-05-03 06:07:00,
2013-05-03 02:13:00,51.6,51.3,29.71,South,180,6.0,6.0,99,0.01,,,0.01,meteohub,2013-05-03 06:13:00,
2013-05-03 02:19:00,51.6,51.3,29.71,NW,315,4.0,4.0,99,0.01,,,0.01,meteohub,2013-05-03 06:19:00,
2013-05-03 02:25:00,51.6,51.3,29.70,West,270,2.0,6.0,99,0.01,,,0.02,meteohub,2013-05-03 06:25:00,
2013-05-03 02:32:00,51.6,51.3,29.70,NW,315,4.0,5.0,99,0.01,,,0.02,meteohub,2013-05-03 06:32:00,
2013-05-03 02:38:00,51.6,51.3,29.70,NE,45,5.0,6.0,99,0.01,,,0.02,meteohub,2013-05-03 06:38:00,
2013-05-03 02:44:00,51.6,51.3,29.70,NW,315,3.0,6.0,99,0.01,,,0.02,meteohub,2013-05-03 06:44:00,
2013-05-03 02:50:00,51.6,51.3,29.70,North,0,2.0,8.0,99,0.01,,,0.02,meteohub,2013-05-03 06:50:00,
2013-05-03 02:56:00,51.6,51.3,29.70,East,90,2.0,6.0,99,0.01,,,0.02,meteohub,2013-05-03 06:56:00,
2013-05-03 03:02:00,51.4,51.1,29.69,NW,315,2.0,6.0,99,0.01,,,0.02,meteohub,2013-05-03 07:02:00,
2013-05-03 03:07:00,51.4,51.1,29.70,NW,315,3.0,6.0,99,0.01,,,0.02,meteohub,2013-05-03 07:07:00,
2013-05-03 03:13:00,51.4,51.1,29.70,NW,315,3.0,4.0,99,0.01,,,0.02,meteohub,2013-05-03 07:13:00,
2013-05-03 03:19:00,51.4,51.1,29.69,North,0,4.0,4.0,99,0.01,,,0.02,meteohub,2013-05-03 07:19:00,
2013-05-03 03:25:00,51.4,51.1,29.69,South,180,4.0,6.0,99,0.00,,,0.02,meteohub,2013-05-03 07:25:00,
2013-05-03 03:32:00,51.4,51.1,29.69,NE,45,4.0,6.0,99,0.00,,,0.02,meteohub,2013-05-03 07:32:00,
2013-05-03 03:38:00,51.4,51.1,29.68,South,180,5.0,6.0,99,0.00,,,0.02,meteohub,2013-05-03 07:38:00,
2013-05-03 03:44:00,51.4,51.1,29.68,NW,315,3.0,11.0,99,0.00,,,0.02,meteohub,2013-05-03 07:44:00,
2013-05-03 03:50:00,51.4,51.1,29.69,SW,225,4.0,11.0,99,0.00,,,0.02,meteohub,2013-05-03 07:50:00,
2013-05-03 03:56:00,51.4,51.1,29.68,SE,135,2.0,6.0,99,0.00,,,0.02,meteohub,2013-05-03 07:56:00,
2013-05-03 04:03:00,51.3,50.9,29.68,NE,45,2.0,4.0,99,0.00,,,0.02,meteohub,2013-05-03 08:03:00,
2013-05-03 04:09:00,51.3,50.9,29.68,NW,315,4.0,4.0,99,0.00,,,0.02,meteohub,2013-05-03 08:09:00,
2013-05-03 04:15:00,51.3,50.9,29.69,SW,225,3.0,6.0,99,0.01,,,0.04,meteohub,2013-05-03 08:15:00,
2013-05-03 04:21:00,51.3,50.9,29.69,South,180,5.0,6.0,99,0.01,,,0.04,meteohub,2013-05-03 08:21:00,
2013-05-03 04:28:00,51.3,50.9,29.69,North,0,1.0,6.0,99,0.01,,,0.04,meteohub,2013-05-03 08:28:00,
2013-05-03 04:34:00,51.1,50.7,29.68,NW,315,4.0,8.0,99,0.01,,,0.04,meteohub,2013-05-03 08:34:00,
2013-05-03 04:40:00,51.1,50.7,29.68,East,90,3.0,8.0,99,0.02,,,0.05,meteohub,2013-05-03 08:40:00,
2013-05-03 04:47:00,51.1,50.7,29.68,SE,135,0.0,7.0,99,0.02,,,0.05,meteohub,2013-05-03 08:47:00,
2013-05-03 04:53:00,50.9,50.5,29.68,NW,315,4.0,7.0,99,0.04,,,0.05,meteohub,2013-05-03 08:53:00,
2013-05-03 04:59:00,50.9,50.5,29.68,South,180,2.0,7.0,99,0.04,,,0.06,meteohub,2013-05-03 08:59:00,
2013-05-03 05:05:00,50.9,50.5,29.68,West,270,3.0,6.0,99,0.04,,,0.06,meteohub,2013-05-03 09:05:00,
2013-05-03 05:11:00,50.7,50.4,29.68,NE,45,3.0,6.0,99,0.04,,,0.06,meteohub,2013-05-03 09:11:00,
2013-05-03 05:17:00,50.7,50.4,29.68,ESE,113,2.0,5.0,99,0.02,,,0.06,meteohub,2013-05-03 09:17:00,
2013-05-03 05:22:00,50.7,50.4,29.67,North,0,2.0,6.0,99,0.02,,,0.06,meteohub,2013-05-03 09:22:00,
2013-05-03 05:28:00,50.7,50.4,29.68,West,270,3.0,6.0,99,0.02,,,0.06,meteohub,2013-05-03 09:28:00,
2013-05-03 05:35:00,50.5,50.2,29.68,East,90,3.0,6.0,99,0.02,,,0.06,meteohub,2013-05-03 09:35:00,
2013-05-03 05:41:00,50.5,50.2,29.68,East,90,2.0,6.0,99,0.01,,,0.06,meteohub,2013-05-03 09:41:00,
2013-05-03 05:47:00,50.5,50.2,29.67,NW,315,2.0,6.0,99,0.01,,,0.06,meteohub,2013-05-03 09:47:00,
2013-05-03 05:52:00,50.5,50.2,29.67,North,0,2.0,6.0,99,0.00,,,0.06,meteohub,2013-05-03 09:52:00,
2013-05-03 05:58:00,50.5,50.2,29.68,NW,315,2.0,6.0,99,0.00,,,0.06,meteohub,2013-05-03 09:58:00,
2013-05-03 06:04:00,50.5,50.2,29.68,NW,315,2.0,6.0,99,0.00,,,0.06,meteohub,2013-05-03 10:04:00,
2013-05-03 06:10:00,50.5,50.2,29.67,NE,45,2.0,6.0,99,0.00,,,0.06,meteohub,2013-05-03 10:10:00,
2013-05-03 06:16:00,50.5,50.2,29.67,North,0,4.0,4.0,99,0.00,,,0.06,meteohub,2013-05-03 10:16:00,
2013-05-03 06:23:00,50.5,50.2,29.67,North,0,6.0,6.0,99,0.00,,,0.06,meteohub,2013-05-03 10:23:00,
2013-05-03 06:29:00,50.5,50.2,29.67,NW,315,2.0,6.0,99,0.00,,,0.06,meteohub,2013-05-03 10:29:00,
2013-05-03 06:35:00,50.5,50.2,29.67,North,0,2.0,6.0,99,0.00,,,0.06,meteohub,2013-05-03 10:35:00,
2013-05-03 06:41:00,50.4,50.0,29.68,NW,315,3.0,8.0,99,0.00,,,0.06,meteohub,2013-05-03 10:41:00,
2013-05-03 06:47:00,50.4,50.0,29.68,NW,315,2.0,8.0,99,0.00,,,0.06,meteohub,2013-05-03 10:47:00,
2013-05-03 06:52:00,50.4,50.0,29.68,West,270,3.0,3.0,99,0.00,,,0.06,meteohub,2013-05-03 10:52:00,
2013-05-03 06:59:00,50.4,50.0,29.68,SE,135,2.0,4.0,99,0.00,,,0.06,meteohub,2013-05-03 10:59:00,
2013-05-03 07:05:00,50.4,50.0,29.68,North,0,2.0,4.0,99,0.00,,,0.06,meteohub,2013-05-03 11:05:00,
2013-05-03 07:11:00,50.4,50.0,29.68,West,270,1.0,4.0,99,0.00,,,0.06,meteohub,2013-05-03 11:11:00,
2013-05-03 07:17:00,50.4,50.0,29.68,SE,135,1.0,4.0,99,0.00,,,0.06,meteohub,2013-05-03 11:17:00,
2013-05-03 07:22:00,50.4,50.0,29.68,NW,315,2.0,4.0,99,0.00,,,0.06,meteohub,2013-05-03 11:22:00,
2013-05-03 07:28:00,50.4,50.0,29.68,NW,315,2.0,4.0,99,0.00,,,0.06,meteohub,2013-05-03 11:28:00,
2013-05-03 07:34:00,50.4,50.0,29.68,East,90,5.0,5.0,99,0.00,,,0.06,meteohub,2013-05-03 11:34:00,
2013-05-03 07:41:00,50.4,50.0,29.68,NE,45,4.0,5.0,99,0.01,,,0.07,meteohub,2013-05-03 11:41:00,
2013-05-03 07:47:00,50.4,50.0,29.69,West,270,3.0,5.0,99,0.01,,,0.07,meteohub,2013-05-03 11:47:00,
2013-05-03 07:53:00,50.5,50.2,29.69,East,90,2.0,4.0,99,0.01,,,0.07,meteohub,2013-05-03 11:53:00,
2013-05-03 07:59:00,50.5,50.2,29.69,NNW,338,2.0,4.0,99,0.01,,,0.07,meteohub,2013-05-03 11:59:00,
2013-05-03 08:05:00,50.5,50.2,29.69,North,0,2.0,4.0,99,0.01,,,0.07,meteohub,2013-05-03 12:05:00,
2013-05-03 08:11:00,50.7,50.4,29.69,NW,315,3.0,4.0,99,0.01,,,0.07,meteohub,2013-05-03 12:11:00,
2013-05-03 08:17:00,50.7,50.4,29.69,NE,45,2.0,4.0,99,0.01,,,0.07,meteohub,2013-05-03 12:17:00,
2013-05-03 08:22:00,51.1,50.7,29.69,NW,315,1.0,4.0,99,0.01,,,0.07,meteohub,2013-05-03 12:22:00,
2013-05-03 08:28:00,51.4,51.1,29.69,SE,135,2.0,4.0,99,0.01,,,0.07,meteohub,2013-05-03 12:28:00,
2013-05-03 08:34:00,51.3,50.9,29.68,NW,315,1.0,3.0,99,0.01,,,0.07,meteohub,2013-05-03 12:34:00,
2013-05-03 08:40:00,51.4,51.1,29.69,South,180,2.0,5.0,99,0.00,,,0.07,meteohub,2013-05-03 12:40:00,
2013-05-03 08:46:00,51.6,51.3,29.69,West,270,3.0,5.0,99,0.00,,,0.07,meteohub,2013-05-03 12:46:00,
2013-05-03 08:53:00,51.6,51.3,29.69,SW,225,2.0,5.0,99,0.00,,,0.07,meteohub,2013-05-03 12:53:00,
2013-05-03 08:59:00,51.8,51.3,29.68,NW,315,3.0,6.0,98,0.00,,,0.07,meteohub,2013-05-03 12:59:00,
2013-05-03 09:05:00,52.2,51.6,29.69,SE,135,2.0,6.0,98,0.00,,,0.07,meteohub,2013-05-03 13:05:00,
2013-05-03 09:11:00,52.5,52.0,29.68,NW,315,4.0,4.0,98,0.00,,,0.07,meteohub,2013-05-03 13:11:00,
2013-05-03 09:17:00,52.7,51.8,29.68,SW,225,3.0,4.0,97,0.00,,,0.07,meteohub,2013-05-03 13:17:00,
2013-05-03 09:22:00,52.7,51.6,29.68,NW,315,2.0,4.0,96,0.00,,,0.07,meteohub,2013-05-03 13:22:00,
2013-05-03 09:28:00,52.9,51.4,29.68,NW,315,3.0,4.0,95,0.00,,,0.07,meteohub,2013-05-03 13:28:00,
2013-05-03 09:34:00,53.6,52.0,29.68,North,0,3.0,4.0,94,0.00,,,0.07,meteohub,2013-05-03 13:34:00,
2013-05-03 09:40:00,54.5,52.0,29.68,SE,135,2.0,6.0,91,0.00,,,0.07,meteohub,2013-05-03 13:40:00,
2013-05-03 09:47:00,56.5,52.9,29.68,South,180,5.0,6.0,88,0.00,,,0.07,meteohub,2013-05-03 13:47:00,
2013-05-03 09:53:00,57.2,51.8,29.68,North,0,4.0,6.0,82,0.00,,,0.07,meteohub,2013-05-03 13:53:00,
2013-05-03 09:59:00,57.9,52.2,29.68,South,180,4.0,8.0,81,0.00,,,0.07,meteohub,2013-05-03 13:59:00,
2013-05-03 10:05:00,58.1,51.6,29.68,NE,45,3.0,8.0,79,0.00,,,0.07,meteohub,2013-05-03 14:05:00,
2013-05-03 10:11:00,58.8,52.3,29.68,South,180,2.0,4.0,79,0.00,,,0.07,meteohub,2013-05-03 14:11:00,
2013-05-03 10:17:00,59.2,51.3,29.68,NW,315,3.0,4.0,75,0.00,,,0.07,meteohub,2013-05-03 14:17:00,
2013-05-03 10:22:00,59.2,50.9,29.68,North,0,5.0,8.0,74,0.00,,,0.07,meteohub,2013-05-03 14:22:00,
2013-05-03 10:28:00,57.9,50.0,29.68,SE,135,3.0,8.0,75,0.00,,,0.07,meteohub,2013-05-03 14:28:00,
2013-05-03 10:35:00,58.3,50.7,29.68,South,180,6.0,8.0,76,0.00,,,0.07,meteohub,2013-05-03 14:35:00,
2013-05-03 10:41:00,61.9,51.6,29.68,NE,45,4.0,6.0,69,0.00,,,0.07,meteohub,2013-05-03 14:41:00,
2013-05-03 10:47:00,64.4,52.0,29.68,NE,45,3.0,6.0,64,0.00,,,0.07,meteohub,2013-05-03 14:47:00,
2013-05-03 10:53:00,65.1,50.9,29.68,NE,45,10.0,10.0,60,0.00,,,0.07,meteohub,2013-05-03 14:53:00,
2013-05-03 10:59:00,66.0,50.4,29.68,East,90,8.0,10.0,57,0.00,,,0.07,meteohub,2013-05-03 14:59:00,
2013-05-03 11:05:00,64.6,48.6,29.68,South,180,4.0,10.0,56,0.00,,,0.07,meteohub,2013-05-03 15:05:00,
2013-05-03 11:12:00,63.0,48.9,29.68,South,180,4.0,8.0,60,0.00,,,0.07,meteohub,2013-05-03 15:12:00,
2013-05-03 11:17:00,62.4,48.4,29.68,East,90,3.0,8.0,60,0.00,,,0.07,meteohub,2013-05-03 15:17:00,
2013-05-03 11:22:00,61.5,47.5,29.69,North,0,7.0,13.0,60,0.00,,,0.07,meteohub,2013-05-03 15:22:00,
2013-05-03 11:29:00,62.4,48.7,29.69,SW,225,7.0,13.0,61,0.00,,,0.07,meteohub,2013-05-03 15:29:00,
2013-05-03 11:35:00,61.5,45.7,29.69,SE,135,14.0,18.0,56,0.01,,,0.08,meteohub,2013-05-03 15:35:00,
2013-05-03 11:41:00,61.3,45.5,29.69,NW,315,8.0,18.0,56,0.01,,,0.08,meteohub,2013-05-03 15:41:00,
2013-05-03 11:47:00,63.7,46.8,29.69,SE,135,4.0,18.0,54,0.01,,,0.08,meteohub,2013-05-03 15:47:00,
2013-05-03 11:53:00,66.0,47.8,29.69,North,0,4.0,14.0,52,0.01,,,0.08,meteohub,2013-05-03 15:53:00,
2013-05-03 11:59:00,65.5,47.5,29.68,East,90,14.0,14.0,52,0.01,,,0.08,meteohub,2013-05-03 15:59:00,
2013-05-03 12:05:00,64.0,45.5,29.68,East,90,3.0,14.0,51,0.01,,,0.08,meteohub,2013-05-03 16:05:00,
2013-05-03 12:11:00,63.9,46.4,29.68,NW,315,2.0,14.0,53,0.01,,,0.08,meteohub,2013-05-03 16:11:00,
2013-05-03 12:17:00,63.9,46.4,29.68,NE,45,3.0,13.0,53,0.01,,,0.08,meteohub,2013-05-03 16:17:00,
2013-05-03 12:22:00,64.4,46.4,29.68,NW,315,4.0,13.0,52,0.01,,,0.08,meteohub,2013-05-03 16:22:00,
2013-05-03 12:28:00,62.8,45.3,29.68,NW,315,3.0,15.0,53,0.01,,,0.08,meteohub,2013-05-03 16:28:00,
2013-05-03 12:34:00,61.7,45.3,29.68,East,90,6.0,15.0,55,0.01,,,0.08,meteohub,2013-05-03 16:34:00,
2013-05-03 12:41:00,60.8,45.5,29.68,NE,45,2.0,10.0,57,0.00,,,0.08,meteohub,2013-05-03 16:41:00,
2013-05-03 12:47:00,60.1,46.2,29.68,SW,225,8.0,10.0,60,0.00,,,0.08,meteohub,2013-05-03 16:47:00,
2013-05-03 12:53:00,59.2,45.7,29.67,North,0,7.0,10.0,61,0.00,,,0.08,meteohub,2013-05-03 16:53:00,
2013-05-03 12:59:00,57.9,45.3,29.67,SW,225,7.0,10.0,63,0.00,,,0.08,meteohub,2013-05-03 16:59:00,
2013-05-03 13:05:00,56.7,45.0,29.67,West,270,6.0,13.0,65,0.00,,,0.08,meteohub,2013-05-03 17:05:00,
2013-05-03 13:11:00,56.5,46.0,29.67,South,180,8.0,13.0,68,0.00,,,0.08,meteohub,2013-05-03 17:11:00,
2013-05-03 13:17:00,56.3,46.2,29.67,WNW,293,2.0,8.0,69,0.00,,,0.08,meteohub,2013-05-03 17:17:00,
2013-05-03 13:22:00,56.3,46.2,29.67,WNW,293,2.0,8.0,69,0.00,,,0.08,meteohub,2013-05-03 17:22:00,
2013-05-03 13:28:00,56.5,46.8,29.66,NE,45,5.0,8.0,70,0.00,,,0.08,meteohub,2013-05-03 17:28:00,
2013-05-03 13:34:00,56.5,46.8,29.66,NW,315,2.0,5.0,70,0.00,,,0.08,meteohub,2013-05-03 17:34:00,
2013-05-03 13:40:00,56.8,47.5,29.66,NE,45,4.0,7.0,71,0.00,,,0.08,meteohub,2013-05-03 17:40:00,
2013-05-03 13:46:00,57.2,47.5,29.66,South,180,2.0,7.0,70,0.00,,,0.08,meteohub,2013-05-03 17:46:00,
2013-05-03 13:53:00,57.0,47.3,29.66,North,0,2.0,4.0,70,0.00,,,0.08,meteohub,2013-05-03 17:53:00,
2013-05-03 13:59:00,57.0,47.3,29.66,SW,225,4.0,13.0,70,0.00,,,0.08,meteohub,2013-05-03 17:59:00,
2013-05-03 14:05:00,57.0,47.3,29.66,North,0,3.0,5.0,70,0.00,,,0.08,meteohub,2013-05-03 18:05:00,
2013-05-03 14:11:00,56.3,47.5,29.66,SW,225,2.0,4.0,72,0.00,,,0.08,meteohub,2013-05-03 18:11:00,
2013-05-03 14:17:00,55.8,46.9,29.66,SE,135,4.0,8.0,72,0.00,,,0.08,meteohub,2013-05-03 18:17:00,
2013-05-03 14:22:00,55.9,47.5,29.66,North,0,4.0,8.0,73,0.00,,,0.08,meteohub,2013-05-03 18:22:00,
2013-05-03 14:28:00,56.1,47.7,29.66,North,0,2.0,8.0,73,0.00,,,0.08,meteohub,2013-05-03 18:28:00,
2013-05-03 14:34:00,56.3,47.8,29.66,North,0,3.0,5.0,73,0.00,,,0.08,meteohub,2013-05-03 18:34:00,
2013-05-03 14:40:00,56.5,48.4,29.65,South,180,2.0,7.0,74,0.00,,,0.08,meteohub,2013-05-03 18:40:00,
2013-05-03 14:47:00,57.4,48.4,29.65,West,270,11.0,11.0,72,0.00,,,0.08,meteohub,2013-05-03 18:47:00,
2013-05-03 14:53:00,57.0,48.0,29.65,North,0,2.0,11.0,72,0.00,,,0.08,meteohub,2013-05-03 18:53:00,
2013-05-03 14:59:00,56.7,48.0,29.65,NW,315,4.0,11.0,73,0.00,,,0.08,meteohub,2013-05-03 18:59:00,
2013-05-03 15:05:00,56.5,48.4,29.65,NE,45,4.0,9.0,74,0.00,,,0.08,meteohub,2013-05-03 19:05:00,
2013-05-03 15:11:00,56.3,48.2,29.65,NW,315,3.0,9.0,74,0.00,,,0.08,meteohub,2013-05-03 19:11:00,
2013-05-03 15:17:00,55.9,47.8,29.65,SE,135,5.0,11.0,74,0.00,,,0.08,meteohub,2013-05-03 19:17:00,
2013-05-03 15:22:00,55.6,47.8,29.65,ENE,68,9.0,11.0,75,0.00,,,0.08,meteohub,2013-05-03 19:22:00,
2013-05-03 15:30:00,55.2,48.6,29.65,NW,315,5.0,9.0,78,0.00,,,0.08,meteohub,2013-05-03 19:30:00,
2013-05-03 15:36:00,55.2,48.7,29.64,SE,135,5.0,9.0,79,0.00,,,0.08,meteohub,2013-05-03 19:36:00,
2013-05-03 15:43:00,54.7,48.4,29.64,SSE,158,4.0,7.0,79,0.00,,,0.08,meteohub,2013-05-03 19:43:00,
2013-05-03 15:49:00,54.1,48.4,29.64,NW,315,6.0,8.0,81,0.00,,,0.08,meteohub,2013-05-03 19:49:00,
2013-05-03 15:55:00,53.8,48.7,29.64,SE,135,2.0,8.0,83,0.00,,,0.08,meteohub,2013-05-03 19:55:00,
2013-05-03 16:01:00,53.4,49.1,29.64,North,0,8.0,12.0,85,0.00,,,0.08,meteohub,2013-05-03 20:01:00,
2013-05-03 16:07:00,53.1,48.9,29.64,NW,315,8.0,12.0,86,0.00,,,0.08,meteohub,2013-05-03 20:07:00,
2013-05-03 16:14:00,53.1,48.9,29.63,NW,315,8.0,12.0,86,0.00,,,0.08,meteohub,2013-05-03 20:14:00,
2013-05-03 16:20:00,53.4,49.6,29.63,West,270,3.0,9.0,87,0.00,,,0.08,meteohub,2013-05-03 20:20:00,
2013-05-03 16:26:00,54.3,49.3,29.63,North,0,5.0,9.0,83,0.00,,,0.08,meteohub,2013-05-03 20:26:00,
2013-05-03 16:32:00,54.9,49.1,29.63,NE,45,2.0,14.0,81,0.00,,,0.08,meteohub,2013-05-03 20:32:00,
2013-05-03 16:37:00,55.4,49.3,29.63,SSE,158,3.0,14.0,80,0.00,,,0.08,meteohub,2013-05-03 20:37:00,
2013-05-03 16:43:00,55.6,48.9,29.63,North,0,4.0,14.0,78,0.00,,,0.08,meteohub,2013-05-03 20:43:00,
2013-05-03 16:49:00,55.4,48.4,29.63,South,180,6.0,7.0,77,0.00,,,0.08,meteohub,2013-05-03 20:49:00,
2013-05-03 16:55:00,54.7,47.7,29.63,SE,135,8.0,8.0,77,0.00,,,0.08,meteohub,2013-05-03 20:55:00,
2013-05-03 17:02:00,54.3,47.7,29.63,North,0,3.0,8.0,78,0.00,,,0.08,meteohub,2013-05-03 21:02:00,
2013-05-03 17:08:00,54.5,47.5,29.63,SE,135,4.0,8.0,77,0.00,,,0.08,meteohub,2013-05-03 21:08:00,
2013-05-03 17:14:00,54.9,46.8,29.63,SW,225,4.0,8.0,74,0.00,,,0.08,meteohub,2013-05-03 21:14:00,
2013-05-03 17:20:00,54.5,46.0,29.62,North,0,9.0,17.0,73,0.00,,,0.08,meteohub,2013-05-03 21:20:00,
2013-05-03 17:26:00,54.3,46.2,29.62,East,90,2.0,17.0,74,0.00,,,0.08,meteohub,2013-05-03 21:26:00,
2013-05-03 17:32:00,54.5,46.4,29.63,South,180,4.0,17.0,74,0.00,,,0.08,meteohub,2013-05-03 21:32:00,
2013-05-03 17:37:00,54.7,46.2,29.62,SE,135,3.0,9.0,73,0.00,,,0.08,meteohub,2013-05-03 21:37:00,
2013-05-03 17:43:00,54.5,46.0,29.62,North,0,4.0,11.0,73,0.00,,,0.08,meteohub,2013-05-03 21:43:00,
2013-05-03 17:49:00,54.3,46.2,29.62,SE,135,6.0,11.0,74,0.00,,,0.08,meteohub,2013-05-03 21:49:00,
2013-05-03 17:56:00,54.1,46.4,29.62,North,0,4.0,6.0,75,0.00,,,0.08,meteohub,2013-05-03 21:56:00,
2013-05-03 18:02:00,53.8,46.4,29.61,South,180,8.0,10.0,76,0.00,,,0.08,meteohub,2013-05-03 22:02:00,
2013-05-03 18:08:00,53.6,46.9,29.61,NW,315,8.0,10.0,78,0.00,,,0.08,meteohub,2013-05-03 22:08:00,
2013-05-03 18:14:00,53.6,46.9,29.61,East,90,3.0,8.0,78,0.00,,,0.08,meteohub,2013-05-03 22:14:00,
2013-05-03 18:20:00,53.6,47.3,29.61,East,90,8.0,8.0,79,0.00,,,0.08,meteohub,2013-05-03 22:20:00,
2013-05-03 18:27:00,53.1,48.0,29.62,NW,315,5.0,8.0,83,0.00,,,0.08,meteohub,2013-05-03 22:27:00,
2013-05-03 18:32:00,52.3,48.0,29.61,NE,45,4.0,8.0,85,0.00,,,0.08,meteohub,2013-05-03 22:32:00,
2013-05-03 18:37:00,52.2,48.0,29.62,North,0,2.0,8.0,86,0.00,,,0.08,meteohub,2013-05-03 22:37:00,
2013-05-03 18:44:00,51.6,48.7,29.62,NW,315,7.0,7.0,90,0.00,,,0.08,meteohub,2013-05-03 22:44:00,
2013-05-03 18:50:00,51.4,48.9,29.62,NW,315,5.0,7.0,91,0.00,,,0.08,meteohub,2013-05-03 22:50:00,
2013-05-03 18:56:00,51.4,48.9,29.61,NW,315,4.0,7.0,91,0.00,,,0.08,meteohub,2013-05-03 22:56:00,
2013-05-03 19:02:00,51.4,48.9,29.61,SW,225,8.0,8.0,91,0.00,,,0.08,meteohub,2013-05-03 23:02:00,
2013-05-03 19:07:00,51.3,49.1,29.61,NE,45,4.0,8.0,92,0.00,,,0.08,meteohub,2013-05-03 23:07:00,
2013-05-03 19:13:00,51.1,48.9,29.61,NW,315,4.0,8.0,92,0.01,,,0.09,meteohub,2013-05-03 23:13:00,
2013-05-03 19:19:00,50.9,48.9,29.61,West,270,8.0,8.0,93,0.01,,,0.09,meteohub,2013-05-03 23:19:00,
2013-05-03 19:25:00,50.7,49.1,29.62,NW,315,4.0,8.0,94,0.01,,,0.09,meteohub,2013-05-03 23:25:00,
2013-05-03 19:31:00,50.5,49.1,29.62,NE,45,2.0,8.0,95,0.01,,,0.09,meteohub,2013-05-03 23:31:00,
2013-05-03 19:37:00,50.5,49.1,29.62,ENE,68,7.0,8.0,95,0.01,,,0.09,meteohub,2013-05-03 23:37:00,
2013-05-03 19:44:00,50.5,49.5,29.62,North,0,10.0,10.0,96,0.01,,,0.09,meteohub,2013-05-03 23:44:00,
2013-05-03 19:50:00,50.5,49.5,29.62,NNW,338,6.0,10.0,96,0.02,,,0.11,meteohub,2013-05-03 23:50:00,
2013-05-03 19:56:00,50.4,49.3,29.61,West,270,11.0,11.0,96,0.04,,,0.12,meteohub,2013-05-03 23:56:00,
2013-05-03 20:02:00,50.4,49.3,29.61,SW,225,4.0,11.0,96,0.04,,,0.12,meteohub,2013-05-04 00:02:00,
2013-05-03 20:07:00,50.4,49.3,29.61,SW,225,5.0,11.0,96,0.02,,,0.12,meteohub,2013-05-04 00:07:00,
2013-05-03 20:13:00,50.2,49.1,29.61,East,90,3.0,11.0,96,0.02,,,0.12,meteohub,2013-05-04 00:13:00,
2013-05-03 20:20:00,50.2,49.3,29.62,North,0,4.0,8.0,97,0.02,,,0.12,meteohub,2013-05-04 00:20:00,
2013-05-03 20:26:00,50.2,49.3,29.61,NW,315,8.0,8.0,97,0.02,,,0.12,meteohub,2013-05-04 00:26:00,
2013-05-03 20:32:00,50.2,49.6,29.61,North,0,10.0,10.0,98,0.02,,,0.12,meteohub,2013-05-04 00:32:00,
2013-05-03 20:37:00,50.2,49.6,29.60,East,90,4.0,10.0,98,0.02,,,0.12,meteohub,2013-05-04 00:37:00,
2013-05-03 20:43:00,50.2,49.6,29.61,West,270,5.0,10.0,98,0.02,,,0.12,meteohub,2013-05-04 00:43:00,
2013-05-03 20:49:00,50.4,49.8,29.61,SW,225,4.0,10.0,98,0.01,,,0.12,meteohub,2013-05-04 00:49:00,
2013-05-03 20:55:00,50.4,49.5,29.61,SE,135,8.0,13.0,97,0.01,,,0.13,meteohub,2013-05-04 00:55:00,
2013-05-03 21:01:00,50.2,49.3,29.61,North,0,5.0,13.0,97,0.02,,,0.14,meteohub,2013-05-04 01:01:00,
2013-05-03 21:07:00,50.0,49.1,29.62,SE,135,3.0,11.0,97,0.04,,,0.15,meteohub,2013-05-04 01:07:00,
2013-05-03 21:14:00,49.8,49.3,29.62,SE,135,5.0,11.0,98,0.04,,,0.15,meteohub,2013-05-04 01:14:00,
2013-05-03 21:20:00,49.6,49.1,29.62,SE,135,9.0,9.0,98,0.06,,,0.18,meteohub,2013-05-04 01:20:00,
2013-05-03 21:26:00,49.5,48.9,29.62,NW,315,4.0,9.0,98,0.06,,,0.18,meteohub,2013-05-04 01:26:00,
2013-05-03 21:32:00,49.3,48.7,29.62,NE,45,7.0,9.0,98,0.07,,,0.19,meteohub,2013-05-04 01:32:00,
2013-05-03 21:37:00,49.1,48.6,29.62,NW,315,5.0,8.0,98,0.08,,,0.19,meteohub,2013-05-04 01:37:00,
2013-05-03 21:43:00,49.1,48.6,29.62,East,90,6.0,8.0,98,0.08,,,0.20,meteohub,2013-05-04 01:43:00,
2013-05-03 21:49:00,49.1,48.2,29.62,SSW,203,10.0,10.0,97,0.08,,,0.20,meteohub,2013-05-04 01:49:00,
2013-05-03 21:55:00,49.1,48.2,29.62,NW,315,4.0,12.0,97,0.07,,,0.20,meteohub,2013-05-04 01:55:00,
2013-05-03 22:01:00,49.1,48.2,29.62,NW,315,3.0,12.0,97,0.06,,,0.20,meteohub,2013-05-04 02:01:00,
2013-05-03 22:07:00,48.9,48.0,29.62,SE,135,10.0,10.0,97,0.05,,,0.20,meteohub,2013-05-04 02:07:00,
2013-05-03 22:14:00,49.1,48.2,29.62,NW,315,6.0,10.0,97,0.04,,,0.20,meteohub,2013-05-04 02:14:00,
2013-05-03 22:20:00,49.1,48.2,29.63,North,0,6.0,17.0,97,0.04,,,0.21,meteohub,2013-05-04 02:20:00,
2013-05-03 22:26:00,49.1,48.2,29.62,North,0,4.0,17.0,97,0.02,,,0.21,meteohub,2013-05-04 02:26:00,
2013-05-03 22:32:00,49.1,48.2,29.62,North,0,2.0,12.0,97,0.02,,,0.21,meteohub,2013-05-04 02:32:00,
2013-05-03 22:37:00,48.9,48.4,29.62,NW,315,4.0,6.0,98,0.01,,,0.21,meteohub,2013-05-04 02:37:00,
2013-05-03 22:43:00,49.1,48.6,29.62,NE,45,2.0,5.0,98,0.01,,,0.21,meteohub,2013-05-04 02:43:00,
2013-05-03 22:49:00,48.9,48.4,29.62,SE,135,5.0,5.0,98,0.01,,,0.21,meteohub,2013-05-04 02:49:00,
2013-05-03 22:56:00,48.9,48.4,29.62,NE,45,7.0,8.0,98,0.01,,,0.21,meteohub,2013-05-04 02:56:00,
2013-05-03 23:02:00,48.7,47.7,29.62,SE,135,6.0,9.0,96,0.01,,,0.21,meteohub,2013-05-04 03:02:00,
2013-05-03 23:08:00,48.7,47.3,29.62,NE,45,2.0,9.0,95,0.01,,,0.21,meteohub,2013-05-04 03:08:00,
2013-05-03 23:14:00,48.6,47.1,29.62,NW,315,6.0,9.0,95,0.01,,,0.21,meteohub,2013-05-04 03:14:00,
2013-05-03 23:20:00,48.4,46.9,29.61,NE,45,4.0,11.0,95,0.00,,,0.21,meteohub,2013-05-04 03:20:00,
2013-05-03 23:27:00,48.6,47.1,29.61,North,0,8.0,12.0,95,0.00,,,0.21,meteohub,2013-05-04 03:27:00,
2013-05-03 23:32:00,48.6,47.1,29.61,NW,315,8.0,12.0,95,0.00,,,0.21,meteohub,2013-05-04 03:32:00,
2013-05-03 23:38:00,48.6,47.1,29.61,North,0,5.0,12.0,95,0.00,,,0.21,meteohub,2013-05-04 03:38:00,
2013-05-03 23:44:00,48.7,47.3,29.61,East,90,4.0,9.0,95,0.00,,,0.21,meteohub,2013-05-04 03:44:00,
2013-05-03 23:50:00,48.9,47.3,29.60,NW,315,1.0,10.0,94,0.00,,,0.21,meteohub,2013-05-04 03:50:00,
2013-05-03 23:56:00,48.7,47.3,29.60,North,0,3.0,10.0,95,0.00,,,0.21,meteohub,2013-05-04 03:56:00,